EDT,Max TemperatureF,Mean TemperatureF,Min TemperatureF,Max Dew PointF,MeanDew PointF,Min DewpointF,Max Humidity, Mean Humidity, Min Humidity, Max Sea Level PressureIn, Mean Sea Level PressureIn, Min Sea Level PressureIn, Max VisibilityMiles, Mean VisibilityMiles, Min VisibilityMiles, Max Wind SpeedMPH, Mean Wind SpeedMPH, Max Gust SpeedMPH,PrecipitationIn, CloudCover, Events, WindDirDegrees
2013-3-1,42,39,36,33,29,27,89,75,60,30.04,30.02,29.99,10,10,9,13,6,17,T,8,,282
2013-3-2,39,36,33,34,29,23,92,76,59,30.10,30.03,29.98,10,9,7,17,9,22,T,8,Rain-Snow,294
2013-3-3,42,35,27,23,20,16,72,55,38,30.14,30.11,30.08,10,10,7,18,8,24,T,5,Snow,329
2013-3-4,54,41,27,35,25,20,92,61,29,30.22,30.11,30.00,10,10,10,7,1,10,0.00,6,,135
2013-3-5,60,48,36,56,44,27,84,74,64,30.00,29.84,29.66,10,8,0,28,9,38,0.43,8,Fog-Rain-Snow-Thunderstorm,236
2013-3-6,43,39,34,30,26,20,70,62,53,30.27,30.13,29.95,10,9,3,25,14,33,T,7,Snow,316
2013-3-7,51,43,34,30,28,26,75,61,46,30.36,30.31,30.26,10,10,10,17,10,23,0.00,4,,11
2013-3-8,58,45,32,31,27,21,82,53,24,30.40,30.33,30.28,10,10,10,17,8,22,0.00,1,,10
2013-3-9,62,50,37,38,31,29,70,51,31,30.32,30.25,30.17,10,9,6,12,4,17,0.00,5,,84
2013-3-10,71,58,45,42,35,30,76,50,23,30.16,30.08,29.98,10,10,10,22,8,30,0.00,4,,158
2013-3-11,62,53,43,56,51,38,100,74,48,29.98,29.87,29.74,10,7,1,21,10,30,0.88,7,Rain,204
2013-3-12,60,50,40,36,31,27,76,53,30,30.14,30.04,29.94,10,10,10,15,9,20,0.00,4,,326
2013-3-13,50,42,33,35,26,19,96,65,34,30.36,30.22,30.13,10,10,10,23,9,28,0.00,2,,319
2013-3-14,55,42,29,37,21,15,82,52,22,30.44,30.35,30.27,10,10,10,16,6,20,0.01,3,Rain,354
2013-3-15,75,55,35,45,39,34,100,66,31,30.28,30.11,29.95,10,9,2,20,5,26,0.01,4,Fog,206
2013-3-16,77,68,58,47,44,41,57,43,29,29.94,29.90,29.83,10,10,10,23,11,30,0.00,4,,223
2013-3-17,73,65,56,52,48,44,77,58,38,29.97,29.91,29.86,10,10,10,21,7,25,0.00,4,,197
2013-3-18,63,57,50,56,54,49,100,86,72,29.90,29.84,29.76,10,5,0,26,6,43,0.75,7,Fog-Rain-Thunderstorm,174
2013-3-19,63,51,38,54,35,17,100,62,23,30.14,30.04,29.90,10,10,9,18,8,25,0.00,4,,348
2013-3-20,58,49,39,31,20,15,70,45,19,30.16,30.07,29.94,10,10,10,22,8,29,0.00,5,,326
2013-3-21,47,37,26,28,14,9,64,45,25,30.08,30.01,29.96,10,10,10,20,9,25,0.00,2,,332
2013-3-22,47,41,35,30,21,16,58,48,38,30.09,30.04,30.00,10,10,10,12,4,14,0.01,7,,22
2013-3-23,54,47,39,46,40,30,100,79,58,30.02,29.94,29.78,10,8,4,10,5,13,0.48,8,Rain,14
2013-3-24,60,51,41,53,47,29,100,78,56,29.86,29.64,29.45,10,5,1,30,10,43,1.12,8,Rain-Thunderstorm,260
2013-3-25,41,38,34,27,24,23,70,62,54,30.11,29.91,29.73,10,9,6,23,12,36,T,8,Snow,267
2013-3-26,41,37,33,30,27,24,89,72,54,30.34,30.19,30.10,10,9,3,17,10,23,T,7,Snow,296
2013-3-27,54,41,28,30,25,23,85,57,29,30.39,30.33,30.28,10,10,10,14,4,21,0.00,3,,308
2013-3-28,63,47,30,35,30,27,92,61,29,30.39,30.32,30.26,10,10,10,20,3,25,0.00,1,,347
2013-3-29,59,47,35,42,35,30,92,64,36,30.36,30.30,30.23,10,10,10,16,5,18,0.01,6,,8
2013-3-30,65,55,45,56,47,43,100,74,48,30.23,30.14,30.00,10,6,1,10,4,13,0.46,8,Rain,5
2013-3-31,65,60,55,59,56,54,100,84,67,30.00,29.92,29.86,10,7,1,16,4,22,0.56,8,Rain,203